TimeEST,TemperatureF,Dew PointF,Humidity,Sea Level PressureIn,VisibilityMPH,Wind Direction,Wind SpeedMPH,Gust SpeedMPH,PrecipitationIn,Events,Conditions,WindDirDegrees,DateUTC
12:01 AM,28.0,24.1,85,30.42,7.0,Calm,Calm,-,N/A,,Clear,0,2012-11-15 05:01:00
12:35 AM,27.5,24.8,90,30.42,5.0,Calm,Calm,-,N/A,,Clear,0,2012-11-15 05:35:00
12:53 AM,27.0,24.4,90,30.40,7.0,SE,3.5,-,N/A,,Clear,130,2012-11-15 05:53:00
1:14 AM,30.6,27.5,88,30.40,7.0,SE,3.5,-,N/A,,Clear,130,2012-11-15 06:14:00
1:33 AM,28.6,24.4,84,30.40,7.0,Calm,Calm,-,N/A,,Clear,0,2012-11-15 06:33:00
1:54 AM,27.1,23.9,88,30.40,5.0,Calm,Calm,-,N/A,,Clear,0,2012-11-15 06:54:00
2:13 AM,26.2,23.2,88,30.40,5.0,Calm,Calm,-,N/A,,Clear,0,2012-11-15 07:13:00
2:33 AM,25.7,23.0,89,30.39,5.0,Calm,Calm,-,N/A,,Clear,0,2012-11-15 07:33:00
2:54 AM,26.4,23.5,89,30.39,4.0,Calm,Calm,-,N/A,,Clear,0,2012-11-15 07:54:00
3:13 AM,26.1,23.5,90,30.39,2.5,Calm,Calm,-,N/A,,Clear,0,2012-11-15 08:13:00
3:34 AM,25.5,23.4,92,30.39,3.0,Calm,Calm,-,N/A,,Clear,0,2012-11-15 08:34:00
3:54 AM,25.5,23.4,92,30.38,3.0,Calm,Calm,-,N/A,,Clear,0,2012-11-15 08:54:00
4:13 AM,25.3,23.2,91,30.38,4.0,Calm,Calm,-,N/A,,Clear,0,2012-11-15 09:13:00
4:34 AM,24.6,22.3,91,30.38,3.0,Calm,Calm,-,N/A,,Clear,0,2012-11-15 09:34:00
4:54 AM,24.1,22.1,92,30.37,3.0,Calm,Calm,-,N/A,,Clear,0,2012-11-15 09:54:00
5:13 AM,24.1,22.1,92,30.37,4.0,Calm,Calm,-,N/A,,Clear,0,2012-11-15 10:13:00
5:34 AM,24.4,22.5,92,30.38,3.0,Calm,Calm,-,N/A,,Clear,0,2012-11-15 10:34:00
5:54 AM,23.7,21.7,92,30.37,3.0,Calm,Calm,-,N/A,,Clear,0,2012-11-15 10:54:00
6:13 AM,24.1,21.9,91,30.38,5.0,Calm,Calm,-,N/A,,Clear,0,2012-11-15 11:13:00
6:34 AM,23.9,21.7,91,30.38,4.0,Calm,Calm,-,N/A,,Clear,0,2012-11-15 11:34:00
6:53 AM,24.4,22.1,91,30.38,4.0,Calm,Calm,-,N/A,,Clear,0,2012-11-15 11:53:00
7:13 AM,23.9,21.7,91,30.39,5.0,Calm,Calm,-,N/A,,Clear,0,2012-11-15 12:13:00
7:33 AM,23.7,21.4,91,30.39,4.0,Calm,Calm,-,N/A,,Clear,0,2012-11-15 12:33:00
7:53 AM,23.9,21.6,91,30.39,3.0,Calm,Calm,-,N/A,,Clear,0,2012-11-15 12:53:00
8:13 AM,25.0,22.5,90,30.40,4.0,Calm,Calm,-,N/A,,Clear,0,2012-11-15 13:13:00
8:33 AM,26.4,23.5,89,30.40,4.0,Calm,Calm,-,N/A,,Clear,0,2012-11-15 13:33:00
8:54 AM,28.6,26.2,91,30.40,2.5,Calm,Calm,-,N/A,,Clear,0,2012-11-15 13:54:00
9:13 AM,31.1,28.6,90,30.40,3.0,Calm,Calm,-,N/A,,Clear,0,2012-11-15 14:13:00
9:33 AM,32.0,29.1,89,30.40,3.0,Calm,Calm,-,N/A,,Clear,0,2012-11-15 14:33:00
9:54 AM,32.9,30.2,90,30.40,3.0,Calm,Calm,-,N/A,,Clear,0,2012-11-15 14:54:00
10:13 AM,33.8,30.7,89,30.40,4.0,Calm,Calm,-,N/A,,Clear,0,2012-11-15 15:13:00
10:34 AM,36.0,31.8,85,30.40,5.0,Calm,Calm,-,N/A,,Clear,0,2012-11-15 15:34:00
10:54 AM,37.4,31.5,79,30.40,7.0,Calm,Calm,-,N/A,,Clear,0,2012-11-15 15:54:00
11:13 AM,39.0,30.7,72,30.40,7.0,Calm,Calm,-,N/A,,Clear,0,2012-11-15 16:13:00
11:34 AM,40.1,30.4,68,30.39,10.0,SSW,3.5,-,N/A,,Clear,200,2012-11-15 16:34:00
11:54 AM,41.0,30.4,66,30.38,10.0,SSE,4.6,-,N/A,,Clear,160,2012-11-15 16:54:00
12:13 PM,41.9,30.7,65,30.38,10.0,SSW,3.5,-,N/A,,Clear,210,2012-11-15 17:13:00
12:34 PM,42.1,30.0,62,30.37,10.0,SW,4.6,-,N/A,,Clear,230,2012-11-15 17:34:00
12:54 PM,42.6,30.4,62,30.37,10.0,SSW,4.6,-,N/A,,Clear,200,2012-11-15 17:54:00
1:13 PM,41.9,29.1,61,30.36,10.0,SSE,3.5,-,N/A,,Clear,150,2012-11-15 18:13:00
1:34 PM,43.2,29.7,59,30.36,10.0,SSE,3.5,-,N/A,,Clear,160,2012-11-15 18:34:00
1:53 PM,43.3,29.8,59,30.35,10.0,Calm,Calm,-,N/A,,Clear,0,2012-11-15 18:53:00
2:13 PM,44.4,30.0,57,30.35,10.0,Calm,Calm,-,N/A,,Clear,0,2012-11-15 19:13:00
2:34 PM,44.2,28.4,54,30.34,10.0,Calm,Calm,-,N/A,,Clear,0,2012-11-15 19:34:00
2:53 PM,43.5,28.9,56,30.34,10.0,Calm,Calm,-,N/A,,Clear,0,2012-11-15 19:53:00
3:13 PM,44.1,29.5,57,30.33,10.0,Calm,Calm,-,N/A,,Clear,0,2012-11-15 20:13:00
3:34 PM,43.3,28.8,56,30.33,10.0,Calm,Calm,-,N/A,,Clear,0,2012-11-15 20:34:00
3:53 PM,43.9,29.1,56,30.33,10.0,Calm,Calm,-,N/A,,Clear,0,2012-11-15 20:53:00
4:14 PM,43.5,29.3,57,30.33,10.0,Calm,Calm,-,N/A,,Clear,0,2012-11-15 21:14:00
4:34 PM,43.0,28.9,58,30.33,10.0,Calm,Calm,-,N/A,,Clear,0,2012-11-15 21:34:00
4:53 PM,42.1,29.3,61,30.33,10.0,Calm,Calm,-,N/A,,Clear,0,2012-11-15 21:53:00
5:14 PM,41.5,29.1,61,30.33,10.0,Calm,Calm,-,N/A,,Clear,0,2012-11-15 22:14:00
5:34 PM,38.5,28.8,68,30.34,10.0,Calm,Calm,-,N/A,,Clear,0,2012-11-15 22:34:00
5:53 PM,38.3,28.8,69,30.34,10.0,Calm,Calm,-,N/A,,Clear,0,2012-11-15 22:53:00
6:33 PM,34.7,29.5,81,30.35,10.0,Calm,Calm,-,N/A,,Clear,0,2012-11-15 23:33:00
6:53 PM,34.0,29.1,82,30.35,7.0,Calm,Calm,-,N/A,,Clear,0,2012-11-15 23:53:00
7:14 PM,33.6,28.9,83,30.36,7.0,Calm,Calm,-,N/A,,Clear,0,2012-11-16 00:14:00
7:33 PM,31.8,27.5,84,30.36,7.0,Calm,Calm,-,N/A,,Clear,0,2012-11-16 00:33:00
7:54 PM,30.6,26.2,84,30.35,7.0,Calm,Calm,-,N/A,,Clear,0,2012-11-16 00:54:00
8:13 PM,31.1,27.7,87,30.36,5.0,Calm,Calm,-,N/A,,Clear,0,2012-11-16 01:13:00
8:33 PM,30.7,27.0,86,30.36,7.0,Calm,Calm,-,N/A,,Clear,0,2012-11-16 01:33:00
8:54 PM,30.0,26.6,87,30.36,7.0,Calm,Calm,-,N/A,,Clear,0,2012-11-16 01:54:00
9:13 PM,30.0,26.6,87,30.37,5.0,Calm,Calm,-,N/A,,Clear,0,2012-11-16 02:13:00
9:34 PM,29.3,26.4,89,30.37,4.0,Calm,Calm,-,N/A,,Clear,0,2012-11-16 02:34:00
9:53 PM,29.7,27.1,90,30.36,4.0,Calm,Calm,-,N/A,,Clear,0,2012-11-16 02:53:00
10:14 PM,29.3,27.0,91,30.37,4.0,Calm,Calm,-,N/A,,Clear,0,2012-11-16 03:14:00
10:34 PM,28.8,26.2,90,30.37,4.0,Calm,Calm,-,N/A,,Clear,0,2012-11-16 03:34:00
10:53 PM,28.4,26.2,92,30.37,2.0,Calm,Calm,-,N/A,,Clear,0,2012-11-16 03:53:00
11:14 PM,28.6,26.4,92,30.37,5.0,Calm,Calm,-,N/A,,Clear,0,2012-11-16 04:14:00
11:33 PM,27.3,25.3,92,30.37,4.0,Calm,Calm,-,N/A,,Clear,0,2012-11-16 04:33:00
11:53 PM,27.5,25.5,92,30.37,0.8,Calm,Calm,-,N/A,,Mist,0,2012-11-16 04:53:00